Location: *
(43.9905°S, 176.4941°W)
Time: 01:13:21
(UTC+00:00)

Cosmos 990 Rocket - Pass Details

Date: 08 December 2019
Orbit: 747 x 769 km, 74.0° (Epoch: 17 January)

Event Time Altitude Azimuth Distance (km) Brightness Sun altitude
Rises 10:25:19 0° 204° (SSW) 3,231 8.8 -21.3°
Reaches altitude 10° 10:27:42 10° 206° (SSW) 2,300 7.6 -21.4°
Maximum altitude 10:32:52 66° 287° (WNW) 827 4.1 -21.7°
Enters shadow 10:34:11 48° 347° (NNW) 992 4.2 -21.7°
